Location: Geremba
(10.4250°N, 67.2394°W)
Time: 23:31:01
(UTC+00:00)

Cosmos 2322 Rocket - Pass Details

Date: 23 May 2024
Orbit: 832 x 850 km, 71.0° (Epoch: 15 June)

Event Time Altitude Azimuth Distance (km) Brightness Sun altitude
Rises 07:50:57 0° 341° (NNW) 3,391 5.5 -30.8°
Reaches altitude 10° 07:53:23 10° 340° (NNW) 2,459 4.7 -30.2°
Enters shadow 07:56:17 32° 336° (NNW) 1,418 3.3 -29.6°
